Weather History for McGrath, AK

Change the Weather History Date:

Wednesday, September 18, 2013

  Actual Average Record
Temperature  
Mean Temperature 34 °F 44 °F  
Max Temperature 42 °F 52 °F 71 °F (1995)
Min Temperature 25 °F 35 °F 20 °F (2004)
Degree Days  
Heating Degree Days 31 21  
Month to date heating degree days 322 315  
Since 1 July heating degree days 740 812  
Cooling Degree Days 0    
Month to date cooling degree days 0  
Year to date cooling degree days 78 16  
Moisture  
Dew Point 23 °F    
Average Humidity 0    
Maximum Humidity 0    
Minimum Humidity 0    
Precipitation  
Precipitation 0.00 in 0.08 in 0.64 in (2007)
Month to date precipitation 2.95 1.54  
Year to date precipitation 12.18 12.91  
Snow  
Snow 0.00 in 0.10 in 2.60 in (1992)
Month to date snowfall 0.0 0.4  
Since 1 July snowfall 0.0 0.4  
Since 1 September snowfall 0.0 0.4  
Snow Depth 0.00 in    
Sea Level Pressure  
Sea Level Pressure 29.77 in    
Wind  
Wind Speed 4 mph (WNW)    
Max Wind Speed 14 mph    
Max Gust Speed 18 mph    
Visibility 10 miles    
Events      
T = Trace of Precipitation, MM = Missing Value Source: NWS Daily Summary

Daily Weather History Graph

Daily Weather History Graph

Search for Another Location

Airport:

Trip Planner

Search our weather history database for the weather conditions in past years. The results will help you decide how hot, cold, wet, or windy it might be!

Date:

Astronomy

Sep. 18, 2013 Rise Set
Actual Time 7:56 AM AKDT 8:34 PM AKDT
Civil Twilight 7:09 AM AKDT 9:20 PM AKDT
Nautical Twilight 6:12 AM AKDT 10:17 PM AKDT
Astronomical Twilight 5:06 AM AKDT 11:22 PM AKDT
Moon 7:54 PM AKDT (9/18) 7:10 AM AKDT (9/18)
Length of Visible Light 14h 10m
Length of Day
12h 38m
Waxing Gibbous, 99% of the Moon is Illuminated
Sep 18
Waxing Gibbous
Sep 19
Full
Sep 26
Last Quarter
Oct 4
New
Oct 11
First Quarter

Hourly Weather History & Observations

Time (AKDT) Temp. Windchill Dew Point Humidity Pressure Visibility Wind Dir Wind Speed Gust Speed Precip Events Conditions
12:53 AM 28.9 °F - 25.0 °F 85% 29.75 in 10.0 mi Calm Calm - N/A   Clear
1:53 AM 28.9 °F - 24.1 °F 82% 29.75 in 10.0 mi Calm Calm - N/A   Clear
2:53 AM 28.0 °F - 24.1 °F 85% 29.75 in 10.0 mi Calm Calm - N/A   Clear
3:53 AM 27.0 °F 23.0 °F 23.0 °F 85% 29.76 in 10.0 mi WNW 3.5 mph - N/A   Clear
4:53 AM 27.0 °F 20.5 °F 23.0 °F 85% 29.77 in 10.0 mi WNW 5.8 mph - N/A   Clear
5:53 AM 27.0 °F 21.6 °F 23.0 °F 85% 29.78 in 10.0 mi West 4.6 mph - N/A   Scattered Clouds
6:53 AM 27.0 °F - 21.9 °F 81% 29.78 in 10.0 mi Calm Calm - N/A   Scattered Clouds
7:53 AM 28.0 °F 24.2 °F 23.0 °F 81% 29.79 in 10.0 mi WNW 3.5 mph - N/A   Overcast
8:53 AM 28.9 °F - 24.1 °F 82% 29.78 in 10.0 mi Calm Calm - N/A   Overcast
9:53 AM 30.9 °F - 25.0 °F 79% 29.78 in 10.0 mi Calm Calm - N/A   Mostly Cloudy
10:53 AM 33.1 °F - 25.0 °F 72% 29.79 in 10.0 mi Calm Calm - N/A   Mostly Cloudy
11:53 AM 36.0 °F - 24.1 °F 62% 29.78 in 10.0 mi Calm Calm - N/A   Mostly Cloudy
12:53 PM 37.0 °F - 26.1 °F 65% 29.78 in 10.0 mi Calm Calm - N/A   Mostly Cloudy
1:53 PM 41.0 °F - 25.0 °F 53% 29.78 in 10.0 mi Calm Calm - N/A   Mostly Cloudy
2:53 PM 39.9 °F 33.9 °F 26.1 °F 58% 29.78 in 10.0 mi WNW 9.2 mph - N/A   Mostly Cloudy
3:53 PM 39.0 °F 32.3 °F 25.0 °F 57% 29.77 in 10.0 mi NW 10.4 mph - N/A   Mostly Cloudy
4:53 PM 39.0 °F 34.8 °F 25.0 °F 57% 29.76 in 10.0 mi WNW 5.8 mph - N/A   Mostly Cloudy
5:53 PM 37.9 °F 31.5 °F 23.0 °F 55% 29.76 in 10.0 mi WNW 9.2 mph - N/A   Overcast
6:53 PM 36.0 °F 29.6 °F 23.0 °F 59% 29.77 in 10.0 mi NW 8.1 mph - N/A   Overcast
7:53 PM 35.1 °F 28.6 °F 21.0 °F 57% 29.78 in 10.0 mi NW 8.1 mph - N/A   Overcast
8:53 PM 35.1 °F 29.3 °F 21.0 °F 57% 29.79 in 10.0 mi WNW 6.9 mph - N/A   Overcast
9:53 PM 34.0 °F 31.0 °F 21.0 °F 59% 29.78 in 10.0 mi West 3.5 mph - N/A   Overcast
10:53 PM 33.1 °F 24.4 °F 19.0 °F 56% 29.78 in 10.0 mi West 11.5 mph - N/A   Overcast
11:53 PM 33.1 °F 27.7 °F 19.9 °F 59% 29.78 in 10.0 mi NW 5.8 mph - N/A   Overcast